Weather in Courtenay

Canada     49°41′12″N   124°59′35″W
temp.,
°C
wind,
m/s
gust,
m/s
humid.,
%
clouds,
%
prec.,
mm/h
press.,
hPa
HPBL,
m
14 april, wed
wed1423:00+7w22625 0.0 102730
02:00+5wnw23655 0.0 102649
05:00+5wnw22665 0.0 102648
08:00+7wnw12585 0.0 102593
11:00+13n23475 0.0 1024482
14:00+16ne23385 0.0 1022766
17:00+17ne12375 0.0 1020589
20:00+11wsw11605 0.0 101911
15 april, thu
thu1523:00+9wnw22650 0.0 102020
02:00+8w22690 0.0 102026
05:00+7w22685 0.0 102132
08:00+9wnw11605 0.0 102163
11:00+14ne21495 0.0 1021408
14:00+17ene21440 0.0 1020556
17:00+18ene11440 0.0 1019395
20:00+12sw01660 0.0 101912
16 april, fri
fri1623:00+11w11700 0.0 102012
02:00+10w22670 0.0 102213
05:00+9w22630 0.0 102316
08:00+12nw11600 0.0 102339
11:00+16ne21515 0.0 1023404
14:00+19e21455 0.0 1022542
17:00+19ene11450 0.0 1021418
20:00+14w01680 0.0 102010
17 april, sat
sat1723:00+12w22690 0.0 102112
02:00+11w22640 0.0 102115
05:00+11w22570 0.0 102115
08:00+13wnw11541 0.0 102134
11:00+18ene21495 0.0 1021368
14:00+20e21445 0.0 1020509
17:00+20e11440 0.0 1019363
20:00+15ssw00650 0.0 101811
18 april, sun
sun1823:00+13wnw11697 0.0 101912
02:00+12w1169100 0.0 102011
05:00+11w117367 0.0 102011
08:00+13n016984 0.0 102060
11:00+17ene215573 0.0 1019425
14:00+19e224957 0.0 1018522
17:00+19ese22515 0.0 1017344
20:00+13e11752 0.0 101615